This demonstration page uses our WeatherBlox Daily Observations layout. Learn more.

Left ArrowRight Arrow

38.83388, -104.82136

Hourly Observations for May 6, 2018

Temp ( °F °C ) Dew Point ( °F °C ) Humidity (%) Winds ( mph kmh ) Pressure ( in mb ) Visibility ( mi km ) Precip ( " mm )
12:58 am 00:58 Mostly Cloudy 57 13.7 26 -3.6 30 30 SW 3 6 29.82 1010 10 16 0.00 0.00
1:58 am 01:58 Mostly Cloudy 59 14.9 27 -2.6 30 30 SSW 10 17 29.81 1010 10 16 0.00 0.00
2:58 am 02:58 Clear 58 14.4 28 -2.3 32 32 SSW 10 17 29.80 1009 10 16 0.00 0.00
3:58 am 03:58 Clear 57 14.1 27 -2.9 31 31 SSW 9 15 29.81 1010 10 16 0.00 0.00
4:58 am 04:58 Clear 55 12.8 27 -2.8 34 34 Calm 29.81 1010 10 16 0.00 0.00
5:58 am 05:58 Sunny 54 12.3 26 -3.1 34 34 SW 5 7 29.83 1010 10 16 0.00 0.00
6:58 am 06:58 Sunny 56 13.5 29 -1.5 36 36 Calm 29.81 1010 10 16 0.00 0.00
7:58 am 07:58 Sunny 60 15.4 30 -1.2 32 32 ENE 3 6 29.81 1010 10 16 0.00 0.00
8:58 am 08:58 Mostly Cloudy 62 16.9 30 -1.2 29 29 ESE 7 11 29.81 1010 10 16 0.00 0.00
9:58 am 09:58 Sunny 65 18.2 28 -2.2 25 25 SSE 10 17 29.81 1010 10 16 0.00 0.00
10:58 am 10:58 Mostly Sunny 65 18.4 28 -2.5 24 24 SE 9 15 29.81 1010 10 16 0.00 0.00
11:58 am 11:58 Mostly Sunny 68 20.1 28 -2 23 23 SE 12 19 29.79 1009 10 16 0.00 0.00
12:58 pm 12:58 Mostly Cloudy 69 20.8 26 -3.3 20 20 SE 12 19 29.78 1008 10 16 0.00 0.00
1:58 pm 13:58 Partly Cloudy 69 20.7 25 -3.7 19 19 E 9 15 29.75 1008 10 16 0.00 0.00
2:58 pm 14:58 Mostly Cloudy 70 21.3 23 -5 17 17 SE 9 15 29.74 1007 10 16 0.00 0.00
3:58 pm 15:58 Mostly Cloudy 70 21.3 23 -4.8 17 17 SE 10 17 29.71 1006 10 16 0.00 0.00
4:58 pm 16:58 Mostly Cloudy 70 21.3 22 -5.5 16 16 SSE 12 19 29.73 1007 10 16 0.00 0.00
5:58 pm 17:58 Mostly Cloudy 69 20.5 22 -5.6 17 17 SE 8 13 29.73 1007 10 16 0.00 0.00
6:58 pm 18:58 Mostly Cloudy 68 20 20 -6.5 16 16 S 6 9 29.72 1006 10 16 0.00 0.00
7:58 pm 19:58 Partly Cloudy 65 18.1 23 -5.2 20 20 Calm 29.74 1007 10 16 0.00 0.00
8:58 pm 20:58 Mostly Cloudy 66 19 19 -7.1 16 16 SSW 7 11 29.75 1008 10 16 0.00 0.00
9:58 pm 21:58 Mostly Clear 63 17.1 26 -3.3 25 25 SSW 14 22 29.78 1009 10 16 0.00 0.00
10:58 pm 22:58 Clear 61 16 29 -1.9 29 29 S 10 17 29.80 1009 10 16 0.00 0.00
11:58 pm 23:58 Partly Cloudy 59 15 29 -1.6 32 32 SSE 8 13 29.78 1009 10 16 0.00 0.00

Powered by AerisWeather